Regional Weather Roundup
Issued by NWS Goodland, KS

Home | Current Version | Previous Version | Text Only | Print | Product List | Glossary Off
Versions: 1 2 3 4 5 6 7 8 9 10 11 12 13 14 15 16 17 18 19 20 21 22 23 24 25 26 27 28 29 30 31 32 33 34 35 36 37 38 39 40 41 42 43 44 45 46 47 48 49 50

000
ASUS43 KGLD 021508
RWRGLD

GOODLAND FORECAST AREA HOURLY WEATHER ROUNDUP
NATIONAL WEATHER SERVICE GOODLAND KS
900 AM MDT TUE SEP 02 2014

...OFFICIAL OBSERVATIONS...

CITY           SKY/WX    TMP DP  RH WIND       PRES   REMARKS
GOODLAND KS    SUNNY     68  60  75 S18       30.11S
HILL CITY KS   SUNNY     67  58  72 CALM      30.05S
IMPERIAL NEB   CLOUDY    60  54  80 SW5       30.09S
MCCOOK NEB     SUNNY     65  57  75 SW3       30.08R
AKRON CO       SUNNY     59  49  69 W9        30.11S
BURLINGTON CO  SUNNY     67  57  70 S14G20    30.13S
LIMON CO       PTSUNNY   61  52  72 S8        30.16S
$$

...UNOFFICIAL OBSERVATIONS...

CITY           SKY/WX    TMP DP  RH WIND       PRES   REMARKS
COLBY KS       MOSUNNY   72  64  78 S12       30.09S
NORTON KS      SUNNY     72  54  53 E3        30.04
SHARON SPRINGS   N/A     67  64  90 CALM        N/A
KIT CARSON CO    N/A     65  58  79 N9          N/A
YUMA CO          N/A     61  56  83 SW7         N/A
$$



USA.gov is the U.S. government's official web portal to all federal, state and local government web resources and services.